JA0BES-13 Weather Reports


time (UTC)temp
C
wind
direction
speed
KPH
gust
KPH
rain 1hr
cm
rain 24hr
cm
rain mn
cm
humidity
%
barometer
mb
20260509002825 12 218 0.0 6.4 0.00 0.00 0.03 79 1012.7
20260509001825 12 270 0.0 4.8 0.00 0.00 0.03 79 1012.7
20260509000824 12 193 0.0 4.8 0.00 0.00 0.03 80 1012.6
20260508235824 12 220 0.0 6.4 0.00 0.00 0.03 81 1012.6
20260508234824 12 101 1.6 6.4 0.00 0.00 0.03 82 1012.5
20260508233824 12 216 0.0 1.6 0.00 0.00 0.03 83 1012.5
20260508232823 11 105 1.6 8.0 0.00 0.00 0.03 82 1012.5
20260508231823 12 241 0.0 4.8 0.00 0.00 0.03 83 1012.5
20260508230822 12 270 0.0 3.2 0.00 0.00 0.03 83 1012.3
20260508225822 12 180 0.0 4.8 0.00 0.00 0.03 84 1012.2
20260508224821 11 144 1.6 1.6 0.00 0.00 0.03 85 1011.9
20260508223821 11 211 0.0 1.6 0.00 0.00 0.03 85 1011.8
20260508222821 10 151 0.0 4.8 0.00 0.00 0.03 87 1011.7
20260508221821 10 189 0.0 3.2 0.00 0.00 0.00 90 1011.4
20260508220820 9 225 0.0 3.2 0.00 0.00 0.00 93 1011.1
20260508215820 9 225 1.6 3.2 0.00 0.00 0.00 94 1010.5
20260508214819 8 180 0.0 4.8 0.00 0.00 0.00 94 1009.9
20260508213819 8 157 0.0 4.8 0.00 0.00 0.00 94 1009.6
20260508212819 8 225 1.6 1.6 0.00 0.00 0.00 93 1009.0
20260508211819 8 180 0.0 0.0 0.00 0.00 0.00 95 1008.5
20260508210818 8 180 0.0 1.6 0.00 0.00 0.00 94 1008.2
20260508120759 13 137 0.0 4.8 0.00 0.00 0.33 100 1005.4
20260508115759 13 159 1.6 4.8 0.00 0.00 0.33 100 1005.3
20260508114758 14 180 0.0 3.2 0.00 0.00 0.33 100 1005.1
20260508113758 14 220 0.0 0.0 0.00 0.00 0.33 100 1005.2
20260508112757 14 135 0.0 3.2 0.00 0.00 0.33 100 1005.0
20260508111757 15 220 0.0 1.6 0.00 0.00 0.33 100 1004.8
20260508110757 15 180 0.0 3.2 0.00 0.00 0.33 100 1004.8
20260508105757 15 225 0.0 1.6 0.00 0.00 0.33 100 1004.4
20260508104756 15 216 0.0 0.0 0.00 0.00 0.33 100 1004.3
20260508103756 15 211 0.0 1.6 0.00 0.00 0.33 100 1004.3
20260508102755 15 180 0.0 1.6 0.00 0.00 0.33 100 1004.2
20260508101755 16 216 0.0 1.6 0.00 0.00 0.33 100 1003.9
20260508100755 16 225 0.0 4.8 0.00 0.00 0.33 100 1003.3
20260508095755 17 225 0.0 4.8 0.00 0.00 0.33 100 1003.3
20260508094754 17 180 0.0 0.0 0.00 0.00 0.33 100 1003.0
20260508093754 17 180 1.6 1.6 0.00 0.00 0.33 98 1002.9
20260508092753 17 225 0.0 4.8 0.00 0.00 0.23 94 1003.1
20260508091753 18 211 0.0 1.6 0.00 0.00 0.00 91 1002.8
20260508090753 18 261 4.8 4.8 0.00 0.00 0.00 90 1002.7
20260508085752 18 110 1.6 6.4 0.00 0.00 0.00 91 1002.7
20260508084752 18 216 0.0 1.6 0.00 0.00 0.00 91 1002.3
20260508083752 18 225 0.0 1.6 0.00 0.00 0.00 93 1002.1
20260508082751 18 189 0.0 1.6 0.00 0.00 0.00 92 1002.3
20260508081751 19 207 0.0 3.2 0.00 0.00 0.00 92 1002.4
20260508080750 19 155 0.0 1.6 0.00 0.00 0.00 92 1002.3
20260508075750 19 164 0.0 1.6 0.00 0.00 0.00 92 1002.6
20260508074750 19 180 0.0 1.6 0.00 0.00 0.00 93 1002.7
20260508073750 19 64 0.0 3.2 0.00 0.00 0.00 92 1002.6
20260508072749 19 143 1.6 1.6 0.00 0.00 0.00 91 1002.3
20260508071749 20 180 0.0 3.2 0.00 0.00 0.00 90 1002.5
20260508070748 20 180 0.0 1.6 0.00 0.00 0.00 89 1002.6
20260508065748 20 135 0.0 1.6 0.00 0.00 0.00 89 1002.7
20260508064748 21 120 0.0 1.6 0.00 0.00 0.00 89 1002.4
20260508063748 21 180 0.0 3.2 0.00 0.00 0.00 85 1002.1
20260508062747 21 180 0.0 0.0 0.00 0.00 0.00 82 1001.8
20260508061747 22 225 0.0 1.6 0.00 0.00 0.00 78 1002.4
20260508060746 22 225 0.0 0.0 0.00 0.00 0.00 75 1002.0
20260508055746 22 180 0.0 1.6 0.00 0.00 0.00 74 1002.0
20260508054746 22 191 0.0 1.6 0.00 0.00 0.00 74 1001.9
20260508053745 22 225 0.0 1.6 0.00 0.00 0.00 75 1001.8
20260508052745 22 225 0.0 4.8 0.00 0.00 0.00 75 1001.8
20260508051745 22 144 0.0 1.6 0.00 0.00 0.00 75 1002.3
20260508050744 22 135 0.0 3.2 0.00 0.00 0.00 74 1002.6
20260508045744 23 277 1.6 1.6 0.00 0.00 0.00 73 1002.5
20260508044744 23 118 1.6 1.6 0.00 0.00 0.00 72 1002.4
20260508043743 23 225 0.0 1.6 0.00 0.00 0.00 71 1002.4
20260508042743 23 184 0.0 3.2 0.00 0.00 0.00 71 1002.9
20260508041743 23 123 1.6 4.8 0.00 0.00 0.00 70 1002.8
20260508040742 23 184 1.6 3.2 0.00 0.00 0.00 70 1003.0
20260508035742 24 142 0.0 6.4 0.00 0.00 0.00 70 1003.0
20260508034741 23 225 0.0 4.8 0.00 0.00 0.00 73 1003.1
20260508033741 23 279 3.2 8.0 0.00 0.00 0.00 74 1003.2
20260508032741 22 119 3.2 6.4 0.00 0.00 0.00 76 1003.3
20260508031741 22 114 4.8 6.4 0.00 0.00 0.00 76 1003.5
20260508030740 22 108 3.2 4.8 0.00 0.00 0.00 77 1003.9
20260508025740 22 180 0.0 3.2 0.00 0.00 0.00 78 1004.0
20260508024739 22 123 1.6 3.2 0.00 0.00 0.00 78 1004.1
20260508023739 22 148 1.6 1.6 0.00 0.00 0.00 78 1004.0
20260508022739 23 225 0.0 1.6 0.00 0.00 0.00 77 1004.2
20260508021739 22 162 0.0 3.2 0.00 0.00 0.00 79 1004.4
20260508020738 22 180 0.0 1.6 0.00 0.00 0.00 80 1004.8
20260508015738 22 229 0.0 4.8 0.00 0.00 0.00 81 1004.8
20260508014737 21 196 0.0 3.2 0.00 0.00 0.00 81 1005.1
20260508013737 20 135 1.6 1.6 0.00 0.00 0.00 85 1004.9
20260508012737 20 155 1.6 3.2 0.00 0.00 0.00 85 1005.0
20260508011736 19 225 1.6 1.6 0.00 0.00 0.00 87 1005.6
20260508010736 19 225 0.0 3.2 0.00 0.00 0.00 87 1005.8
20260508005736 18 202 1.6 4.8 0.00 0.00 0.00 88 1005.8
20260508004735 18 218 0.0 1.6 0.00 0.00 0.00 91 1005.7
20260508003735 18 180 0.0 0.0 0.00 0.00 0.00 92 1005.6